sat.trackr.live / text

‹ back to catalog

STARLINK-34244

NORAD 65351 · 2025-190A

PAYLOAD ACTIVE UNKNOWN

§ Identity

Operator
Country
US
Launch date
2025-08-28
Launch site
AFETR
Launch vehicle
Mass (kg)
RCS (m²)

Purposes: comms

External: N2YO · Heavens-Above · Gunter

§ Orbital elements

Epoch: 2026-09-20T11:26:13.703136Z

Period
93.85 min
Inclination
53.1612°
Eccentricity
0.0000896
Mean motion
15.34406605 rev/d
Perigee alt
462.1 km
Apogee alt
463.3 km
Semi-major
6,840.8 km
B*
7.8235e-4
RAAN
339.4907°
Arg perigee
92.3327°
Mean anomaly
267.7778°
Rev number
5,963

§ Raw data

STARLINK-342441 65351U 25190A   26263.47654749  .00026154  00000+0  78235-3 0  99972 65351  53.1612 339.4907 0000896  92.3327 267.7778 15.34406605 59635

JSON: /api/v1/satellites/65351 · /tle

For live sub-satellite position, see the globe view (requires WebGL).

§ Visibility from observer

Set your observer location to see the next 7 days of passes ≥ 10°. The values pass through the URL so the page stays shareable.

No JS? Fill the form by hand. The geolocation button needs JavaScript.